Regional Weather Roundup
Issued by NWS

Home | Current Version | Previous Version | Graphics & Text | Print | Product List | Glossary On
Versions: 1 2 3 4 5 6 7 8 9 10 11 12 13 14 15 16 17 18 19 20 21 22 23 24 25 26 27 28 29 30 31 32 33 34 35 36 37 38 39 40 41 42 43 44 45 46 47 48 49 50
441
ASUS45 KCYS 231310
RWRWY

WYOMING REGIONAL WEATHER ROUNDUP
NATIONAL WEATHER SERVICE CHEYENNE WY
700 AM MDT SAT JUL 23 2016

NOTE:  "FAIR" INDICATES FEW OR NO CLOUDS BELOW 12,000 FEET
WITH NO SIGNIFICANT WEATHER AND/OR OBSTRUCTIONS TO VISIBILITY.

WYZ001-231400-
YELLOWSTONE NATIONAL PARK

CITY           SKY/WX    TMP DP  RH WIND       PRES   REMARKS
LK YELLOWSTONE   N/A     39  28  64 CALM      30.33R
W YELLOWSTONE  NOT AVBL

$$
WYZ002>013-054>058-071-098>099-231400-
NORTHERN WYOMING

CITY           SKY/WX    TMP DP  RH WIND       PRES   REMARKS
JACKSON        CLEAR     52  27  37 CALM      30.25R
CODY           FAIR      61  43  51 W5        30.13S
GREYBULL       FAIR      72  40  31 NW15      30.01R
WORLAND        FAIR      64  44  48 SW7       30.05R
SHERIDAN       FAIR      67  42  40 NW6       30.06S
BUFFALO        FAIR      65  40  39 N14G24    30.10R
GILLETTE       FAIR      64  48  56 NW20      30.03S
HULETT         FAIR      68  55  64 W6        30.02R
NEWCASTLE      FAIR      66  52  59 NW13      29.99R

$$
WYZ014>020-022>026-101>103-231400-
CENTRAL WYOMING

CITY           SKY/WX    TMP DP  RH WIND       PRES   REMARKS
BIG PINEY      FAIR      45  27  49 E5        30.30R
PINEDALE       FAIR      41  36  81 NW7       30.31R
DUBOIS         FAIR      50  19  29 NW12      30.23F HAZE
LANDER         FAIR      60  38  43 E7        30.11R
RIVERTON       FAIR      63  31  30 W8        30.12R
CASPER         FAIR      64  44  48 N14G22    30.13R
DOUGLAS          N/A    N/A N/A N/A MISG      30.07R

$$
WYZ021-027>030-104>119-231400-
SOUTHERN WYOMING

CITY           SKY/WX    TMP DP  RH WIND       PRES   REMARKS
EVANSTON       FAIR      57  33  40 S6        30.32R
KEMMERER         N/A     54  27  35 N7        30.32R
FORT BRIDGER   FAIR      60  31  32 W8        30.33R
ROCK SPRINGS   FAIR      60  37  42 W3        30.28R
DIXON          FAIR      56  46  70 SE7       30.30R
RAWLINS        FAIR      66  42  41 W16G23    30.23R
SARATOGA       FAIR      61  43  51 E8        30.27R
LARAMIE        FAIR      63  42  46 S8        30.26R
CHEYENNE       FAIR      70  42  36 W14       30.15R
TORRINGTON     FAIR      63  60  90 CALM      29.96R
PINE BLUFFS    FAIR      64  59  82 S5        30.08R

$$




USA.gov is the U.S. government's official web portal to all federal, state and local government web resources and services.